EW6230 Weather Reports


time (UTC)temp
C
wind
direction
speed
KPH
gust
KPH
rain 1hr
cm
rain 24hr
cm
rain mn
cm
humidity
%
barometer
mb
20260504214550 23 29 0.0 0.0 0.00 0.00 0.00 52 1006.7
20260504213036 23 59 0.0 0.0 0.00 0.00 0.00 49 1006.8
20260504211534 24 94 0.0 0.0 0.00 0.00 0.00 46 1006.9
20260504210036 24 221 0.0 0.0 0.00 0.00 0.00 45 1006.9
20260504204531 25 221 0.0 0.0 0.00 0.00 0.00 44 1006.9
20260504203024 25 220 0.0 0.0 0.00 0.00 0.00 44 1006.9
20260504201513 24 196 0.0 0.0 0.00 0.00 0.00 49 1006.8
20260504200009 24 194 0.0 0.0 0.00 0.00 0.00 46 1006.9
20260504194506 23 194 0.0 0.0 0.00 0.00 0.00 45 1006.9
20260504193100 23 194 0.0 0.0 0.00 0.00 0.00 44 1007.0
20260504191600 25 193 0.0 0.0 0.00 0.00 0.00 40 1006.9
20260504190054 26 171 0.0 0.0 0.00 0.00 0.00 39 1006.8
20260504184547 26 172 0.0 0.0 0.00 0.00 0.00 38 1006.9
20260504183043 26 167 0.0 0.0 0.00 0.00 0.00 36 1007.0
20260504181539 25 150 0.0 0.0 0.00 0.00 0.00 38 1007.1
20260504180033 26 148 0.0 0.0 0.00 0.00 0.00 38 1007.1
20260504174529 25 150 0.0 0.0 0.00 0.00 0.00 39 1007.1
20260504173024 24 51 0.0 0.0 0.00 0.00 0.00 42 1007.2
20260504171520 24 50 0.0 1.6 0.00 0.00 0.00 41 1007.2
20260504160106 25 37 0.0 0.0 0.00 0.00 0.00 44 1007.1
20260504081531 14 58 0.0 0.0 0.00 0.00 0.00 52 1005.6
20260504050010 15 58 0.0 0.0 0.00 0.00 0.00 57 1006.2
20260504044514 16 58 0.0 0.0 0.00 0.00 0.00 49 1006.0
20260504043014 17 58 0.0 0.0 0.00 0.00 0.00 47 1006.0
20260504041532 17 58 0.0 0.0 0.00 0.00 0.00 44 1006.0
20260504040015 18 58 0.0 0.0 0.00 0.00 0.00 48 1006.0
20260504034510 18 58 0.0 0.0 0.00 0.00 0.00 46 1005.9
20260504033008 19 58 0.0 0.0 0.00 0.00 0.00 44 1005.9
20260504031508 20 58 0.0 0.0 0.00 0.00 0.00 42 1005.8
20260504030007 21 58 0.0 0.0 0.00 0.00 0.00 39 1005.9
20260504024506 21 58 0.0 0.0 0.00 0.00 0.00 38 1006.0
20260504023005 22 58 0.0 0.0 0.00 0.00 0.00 34 1006.0
20260504021503 22 58 0.0 0.0 0.00 0.00 0.00 37 1006.2
20260504020005 22 58 0.0 0.0 0.00 0.00 0.00 36 1006.2
20260504014602 23 58 0.0 0.0 0.00 0.00 0.00 33 1006.4
20260504013126 23 58 0.0 0.0 0.00 0.00 0.00 33 1006.6
20260504011556 23 61 0.0 0.0 0.00 0.00 0.00 33 1006.8
20260504010057 23 61 0.0 0.0 0.00 0.00 0.00 33 1007.1
20260504004553 23 61 0.0 0.0 0.00 0.00 0.00 33 1007.2
20260504003052 25 61 0.0 0.0 0.00 0.00 0.00 31 1007.3
20260504001551 26 25 0.0 0.0 0.00 0.00 0.00 31 1007.4
20260504000049 26 25 0.0 0.0 0.00 0.00 0.00 29 1007.5
20260503234547 27 25 0.0 0.0 0.00 0.00 0.00 30 1007.6
20260503233046 27 80 0.0 0.0 0.00 0.00 0.00 32 1007.8
20260503231542 26 82 0.0 0.0 0.00 0.00 0.00 33 1007.8
20260503230042 26 79 0.0 0.0 0.00 0.00 0.00 33 1008.0
20260503224537 26 89 0.0 0.0 0.00 0.00 0.00 33 1008.3
20260503223035 25 151 0.0 0.0 0.00 0.00 0.00 35 1008.5
20260503221533 25 92 0.0 0.0 0.00 0.00 0.00 35 1008.8
20260503220030 24 126 0.0 0.0 0.00 0.00 0.00 36 1009.1